Tracking 28790 objects as of 18-Apr-2024
HD Live streaming from Space Station
objects crossing your sky now

DELTA 1 DEB

Track DELTA 1 DEB now!
10-day predictions


NORAD ID: 42646
Int'l Code: 1975-052MF
Perigee: 1,091.4 km
Apogee: 1,173.3 km
Inclination: 100.0 °
Period: 107.8 minutes
Semi major axis: 7503 km
RCS: Unknown
Launch date: June 12, 1975
Source: United States (US)
Launch site: AIR FORCE WESTERN TEST RANGE (AFWTR)

Note: This is SATELLITE DEBRIS
Your satellite tracking list
Your tracking list is empty




NASA's NSSDC Master Catalog

Two Line Element Set (TLE):
1 42646U 75052MF  24107.02167134  .00000234  00000-0  54208-3 0  9990
2 42646 100.0047  28.8281 0054607 315.2437  44.4289 13.35736038461294
Source of the keplerian elements: AFSPC